Regional Weather Roundup
Issued by NWS

Home | Current Version | Previous Version | Text Only | Print | Product List | Glossary Off
Versions: 1 2 3 4 5 6 7 8 9 10 11 12 13 14 15 16 17 18 19 20 21 22 23 24 25 26 27 28 29 30 31 32 33 34 35 36 37 38 39 40 41 42 43 44 45 46 47 48 49 50

730
ASUS44 KJAN 270103
RWRMS

MISSISSIPPI HOURLY WEATHER ROUNDUP
NATIONAL WEATHER SERVICE JACKSON MS
700 PM CST MON JAN 26 2015

NOTE: "FAIR: INDICATES FEW OR NO CLOUDS BELOW 12,000 FEET WITH NO
SIGNIFICANT WEATHER AND/OR OBSTRUCTIONS TO VISIBILITY.

MSZ001>002-007>008-010>013-018>021-025>028-034>036-270200-
NORTHWEST MISSISSIPPI

CITY           SKY/WX    TMP DP  RH WIND       PRES   REMARKS
CLARKSDALE     FAIR      46  37  71 S5        30.00S
CLEVELAND      FAIR      46  41  83 SW7       30.00R
GREENWOOD      CLEAR     45  37  73 SW5       30.01S
GREENVILLE     CLEAR     45  35  68 SW8       30.01R
GRENADA        FAIR      43  36  75 SW3       30.00R
OLIVE BRANCH   PTCLDY    39  34  81 S3        29.97R
OXFORD         FAIR      39  32  75 SW6       29.99S WCI  35
TUNICA         CLEAR     43  34  70 SW8       29.99S
$$

MSZ003>006-009-014>017-022>024-029>033-037>039-270200-
NORTHEAST MISSISSIPPI

CITY           SKY/WX    TMP DP  RH WIND       PRES   REMARKS
COLUMBUS AFB   MOCLDY    40  31  70 CALM      29.98S
CORINTH        MOCLDY    43  30  61 CALM      29.97R
STARKVILLE     FAIR      41  34  75 CALM      29.98F
TUPELO         MOCLDY    43  30  60 CALM      29.98R
$$

MSZ040-058-270200-
CENTRAL MISSISSIPPI

CITY           SKY/WX    TMP DP  RH WIND       PRES   REMARKS
JACKSON INTL   CLEAR     43  33  68 SW7       30.03F
JACKSON HAWKNS CLEAR     47  33  58 SW6       30.03F
MERIDIAN KEY   CLEAR     39  33  79 CALM      30.02F
MERIDIAN NAS   CLEAR     44  32  62 SW5       30.02S
RAYMOND        FAIR      45  41  87 MISG      30.04F
VICKSBURG      CLEAR     48  37  65 SW5       30.05F
$$

MSZ059>079-270200-
SOUTH MISSISSIPPI

CITY           SKY/WX    TMP DP  RH WIND       PRES   REMARKS
BROOKHAVEN     FAIR      45  37  76 CALM      30.07F
HATTIESBURG    CLEAR     46  36  68 CALM      30.07S
MCCOMB         CLEAR     46  35  65 CALM      30.08S
NATCHEZ        CLEAR     46  34  61 S5        30.08F
PINE BELT      CLEAR     43  36  75 SW3       30.06S
$$

MSZ080>082-270200-
COASTAL MISSISSIPPI

CITY           SKY/WX    TMP DP  RH WIND       PRES   REMARKS
BAY ST LOUIS   CLEAR     45  36  70 CALM      30.09R
BILOXI         CLEAR     50  36  57 W1        30.08R
PASCAGOULA     CLEAR     43  36  76 CALM      30.08R
GULFPORT       CLEAR     47  36  65 CALM      30.08R
$$



USA.gov is the U.S. government's official web portal to all federal, state and local government web resources and services.